Ardabil, Iran

11:02 PM +0330 on October 18, 2019 (GMT +0330)
Ardabil

Weather History for OITL - August, 2019

Change the Weather History Date:

Monday, August 19, 2019

  Actual Average (WUND) Record (WUND)
Temperature  
Mean Temperature 64 °F -  
Max Temperature 82 °F - - (-1)
Min Temperature 46 °F - - (-1)
Degree Days  
Heating Degree Days 1    
Growing Degree Days 14 (Base 50)    
Moisture  
Dew Point 35 °F    
Average Humidity 30    
Maximum Humidity 62    
Minimum Humidity 16    
Precipitation  
Precipitation 0.00 in - - ()
Sea Level Pressure  
Sea Level Pressure 30.10 in    
Wind  
Wind Speed 12 mph ()    
Max Wind Speed 33 mph    
Max Gust Speed -    
Visibility 6.2 miles    
Events      
Averages and records for this station are not official NWS values.
T = Trace of Precipitation, MM = Missing Value Source: Averaged Metar Reports

Daily Weather History Graph

Daily Weather History Graph

Search for Another Location

Airport or City:

Astronomy

Aug. 19, 2019 Rise Set
Actual Time 6:33 AM +0430 8:05 PM +0430
Civil Twilight 6:05 AM +0430 8:33 PM +0430
Nautical Twilight 5:32 AM +0430 9:06 PM +0430
Astronomical Twilight 4:56 AM +0430 9:42 PM +0430
Moon 10:19 PM +0430 (8/19) 9:51 AM +0430 (8/19)
Length of Visible Light 14h 27m
Length of Day
13h 31m
Waning Gibbous, 87% of the Moon is Illuminated
Aug 19
Waning Gibbous
Aug 23
Last Quarter
Aug 30
New
Sep 6
First Quarter
Sep 14
Full

Hourly Weather History & Observations

Time (+0430) Temp. Windchill Dew Point Humidity Pressure Visibility Wind Dir Wind Speed Gust Speed Precip Events Conditions
12:22 AM 55.4 °F - 37.4 °F 51% 30.04 in - South 4.6 mph - N/A   Clear
1:23 AM 55.4 °F - 35.6 °F 47% 30.04 in 6.2 mi South 4.6 mph - N/A   Partly Cloudy
2:24 AM 55.4 °F - 35.6 °F 47% 30.06 in 6.2 mi ESE 6.9 mph - N/A   Scattered Clouds
3:23 AM 50.0 °F - 35.6 °F 58% 30.06 in 6.2 mi West 4.6 mph - N/A   Scattered Clouds
4:20 AM 50.0 °F - 35.6 °F 58% 30.06 in 6.2 mi East 4.6 mph - N/A   Partly Cloudy
5:21 AM 48.2 °F - 33.8 °F 58% 30.09 in 6.2 mi SE 4.6 mph - N/A   Partly Cloudy
6:21 AM 46.4 °F 44.3 °F 33.8 °F 62% 30.09 in 6.2 mi NE 4.6 mph - N/A   Partly Cloudy
6:30 AM 46.4 °F 44.3 °F 33.8 °F 62% 30.09 in 6.2 mi NE 4.6 mph - N/A   Partly Cloudy
7:20 AM 50.0 °F - 35.6 °F 58% 30.12 in 6.2 mi Calm Calm - N/A   Scattered Clouds
8:30 AM 62.6 °F - 37.4 °F 39% 30.12 in 6.2 mi Variable 2.3 mph - N/A   Partly Cloudy
9:23 AM 69.8 °F - 39.2 °F 33% 30.12 in 6.2 mi NNE 4.6 mph - N/A   Partly Cloudy
9:30 AM 69.8 °F - 39.2 °F 33% 30.12 in 6.2 mi NNE 4.6 mph - N/A   Partly Cloudy
10:23 AM 75.2 °F - 37.4 °F 25% 30.12 in 6.2 mi ENE 9.2 mph - N/A   Partly Cloudy
10:30 AM 75.2 °F - 37.4 °F 25% 30.12 in 6.2 mi ENE 9.2 mph - N/A   Partly Cloudy
11:00 AM 77.0 °F - 33.8 °F 21% 30.12 in 6.2 mi East 13.8 mph - N/A   Partly Cloudy
11:21 AM 78.8 °F - 33.8 °F 20% 30.12 in 6.2 mi East 18.4 mph - N/A   Partly Cloudy
12:21 PM 82.4 °F - 32.0 °F 16% 30.12 in 6.2 mi ENE 21.9 mph - N/A   Partly Cloudy
12:30 PM 82.4 °F - 32.0 °F 16% 30.12 in 6.2 mi ENE 21.9 mph - N/A   Partly Cloudy
1:00 PM 80.6 °F - 33.8 °F 18% 30.09 in 6.2 mi ENE 26.5 mph - N/A   Partly Cloudy
1:21 PM 82.4 °F - 32.0 °F 16% 30.09 in 6.2 mi East 26.5 mph - N/A   Partly Cloudy
1:30 PM 82.4 °F - 32.0 °F 16% 30.09 in 6.2 mi East 26.5 mph - N/A   Partly Cloudy
2:22 PM 82.4 °F - 33.8 °F 17% 30.09 in 6.2 mi ENE 28.8 mph - N/A   Partly Cloudy
2:30 PM 82.4 °F - 33.8 °F 17% 30.09 in 6.2 mi ENE 28.8 mph - N/A   Partly Cloudy
3:00 PM 82.4 °F - 33.8 °F 17% 30.09 in 6.2 mi ENE 28.8 mph - N/A   Partly Cloudy
3:21 PM 82.4 °F - 32.0 °F 16% 30.09 in 6.2 mi ENE 31.1 mph - N/A   Partly Cloudy
3:30 PM 82.4 °F - 32.0 °F 16% 30.09 in 6.2 mi ENE 31.1 mph - N/A   Partly Cloudy
4:00 PM 82.4 °F - 32.0 °F 16% 30.09 in 6.2 mi ENE 33.4 mph - N/A   Partly Cloudy
4:21 PM 80.6 °F - 33.8 °F 18% 30.09 in 6.2 mi ENE 33.4 mph - N/A   Partly Cloudy
4:30 PM 80.6 °F - 33.8 °F 18% 30.09 in 6.2 mi ENE 33.4 mph - N/A   Partly Cloudy
5:00 PM 80.6 °F - 32.0 °F 17% 30.09 in 6.2 mi ENE 33.4 mph - N/A   Partly Cloudy
5:23 PM 80.6 °F - 33.8 °F 18% 30.09 in 6.2 mi ENE 31.1 mph - N/A   Partly Cloudy
6:22 PM 77.0 °F - 33.8 °F 21% 30.09 in 6.2 mi ENE 26.5 mph - N/A   Partly Cloudy
6:30 PM 77.0 °F - 33.8 °F 21% 30.09 in 6.2 mi ENE 26.5 mph - N/A   Partly Cloudy
7:21 PM 73.4 °F - 35.6 °F 25% 30.12 in 6.2 mi ENE 24.2 mph - N/A   Partly Cloudy
7:30 PM 73.4 °F - 35.6 °F 25% 30.12 in 6.2 mi ENE 24.2 mph - N/A   Partly Cloudy
9:21 PM 68.0 °F - 37.4 °F 33% 30.15 in - ENE 13.8 mph - N/A   Clear
10:20 PM 66.2 °F - 37.4 °F 35% 30.15 in - NNE 9.2 mph - N/A   Clear
11:20 PM 62.6 °F - 37.4 °F 39% 30.15 in - East 4.6 mph - N/A   Clear